Location: Village de las Huertas
(35.3014°N, 106.4095°W)
Time: 08:56:12
(UTC+00:00)

ERS-2 - Pass Details

Date: 29 October 2020
Orbit: 493 x 497 km, 98.6° (Epoch: 04 December)

Event Time Altitude Azimuth Distance (km) Brightness Sun altitude
Rises 12:02:15 0° 177° (S) 2,563 5.8 -17.4°
Reaches altitude 10° 12:04:21 10° 183° (S) 1,684 4.8 -16.9°
Maximum altitude 12:07:52 49° 259° (W) 648 2.2 -16.2°
Enters shadow 12:10:34 16° 331° (NNW) 1,361 4.0 -15.7°
